When you browse on this site, cookies collect data to enhance your experience and personalize the content and advertising you see.
Visit our Privacy Policy to learn more. By continuing to use the site, you agree to this use of cookies and data.
  • în România
  • Lista ţărilor
  • Pe 7 zile
  • Temperatura apei
  • Hartă satelitară
  • Meteo pe hartă
  • Widget-uri
  • user-avatar
    Intrare

    Meteo pe oră la Maloe Sidelnikovo

    Astăzi, 19 Februarie, Marţi

    Timp Temperatura Precipitaţii Vânt Presiune Umiditate
    00:00 -10°C° 0 mm 3 m/s 749 mmHg 81%
    01:00 -10°C° 0 mm 4 m/s 749 mmHg 77%
    02:00 -10°C° 0 mm 5 m/s 748 mmHg 75%
    03:00 -8°C° 0 mm 5 m/s 747 mmHg 75%
    04:00 -9°C° 0 mm 6 m/s 746 mmHg 74%
    05:00 -8°C° 0 mm 6 m/s 745 mmHg 73%
    06:00 -8°C° 0 mm 6 m/s 744 mmHg 75%
    07:00 -7°C° 0 mm 5 m/s 743 mmHg 77%
    08:00 -7°C° 0 mm 5 m/s 743 mmHg 78%
    09:00 -6°C° 0 mm 5 m/s 742 mmHg 79%
    10:00 -5°C° 0 mm 5 m/s 742 mmHg 80%
    11:00 -3°C° 0 mm 6 m/s 742 mmHg 81%
    12:00 -2°C° 0 mm 5 m/s 742 mmHg 83%
    13:00 -1°C° 0 mm 5 m/s 741 mmHg 84%
    14:00 -1°C° 0 mm 5 m/s 741 mmHg 86%
    15:00 -1°C° 0 mm 4 m/s 741 mmHg 87%
    16:00 -1°C° 0 mm 4 m/s 740 mmHg 88%
    17:00 -1°C° 0 mm 4 m/s 740 mmHg 89%
    18:00 -2°C° 0 mm 4 m/s 740 mmHg 90%
    19:00 -2°C° 0 mm 4 m/s 739 mmHg 91%
    20:00 -2°C° 0 mm 4 m/s 739 mmHg 91%
    21:00 -2°C° 0 mm 4 m/s 738 mmHg 90%
    22:00 -2°C° 0 mm 4 m/s 737 mmHg 90%
    23:00 -2°C° 0 mm 4 m/s 736 mmHg 89%

    Mâine, 20 Februarie, Miercuri

    Timp Temperatura Precipitaţii Vânt Presiune Umiditate
    00:00 -2°C° 0.1 mm 4 m/s 736 mmHg 89%
    01:00 -2°C° 0.1 mm 4 m/s 735 mmHg 89%
    02:00 -2°C° 0.1 mm 4 m/s 734 mmHg 89%
    03:00 -1°C° 0.1 mm 4 m/s 734 mmHg 89%
    04:00 -1°C° 0.1 mm 4 m/s 733 mmHg 88%
    05:00 -1°C° 0.1 mm 5 m/s 732 mmHg 88%
    06:00 -1°C° 0.2 mm 5 m/s 732 mmHg 89%
    07:00 -1°C° 0.2 mm 5 m/s 732 mmHg 90%
    08:00 -1°C° 0.2 mm 5 m/s 731 mmHg 91%
    09:00 0°C° 0 mm 4 m/s 731 mmHg 90%
    10:00 0°C° 0 mm 4 m/s 731 mmHg 89%
    11:00 0°C° 0 mm 4 m/s 732 mmHg 89%
    12:00 0°C° 0.1 mm 4 m/s 732 mmHg 89%
    13:00 0°C° 0.1 mm 4 m/s 732 mmHg 89%
    14:00 0°C° 0.1 mm 4 m/s 732 mmHg 90%
    15:00 0°C° 0.1 mm 4 m/s 731 mmHg 90%
    16:00 0°C° 0.1 mm 4 m/s 731 mmHg 91%
    17:00 -1°C° 0.1 mm 4 m/s 731 mmHg 92%
    18:00 0°C° 0.2 mm 3 m/s 731 mmHg 92%
    19:00 0°C° 0.2 mm 3 m/s 731 mmHg 92%
    20:00 0°C° 0.2 mm 3 m/s 731 mmHg 92%
    21:00 0°C° 0.1 mm 3 m/s 731 mmHg 93%
    22:00 0°C° 0.1 mm 3 m/s 731 mmHg 94%
    23:00 +1°C° 0.1 mm 2 m/s 730 mmHg 94%

    Poimâine, 21 Februarie, Joi

    Timp Temperatura Precipitaţii Vânt Presiune Umiditate
    00:00 -1°C° 0.2 mm 2 m/s 730 mmHg 95%
    01:00 -1°C° 0.2 mm 2 m/s 730 mmHg 96%
    02:00 -1°C° 0.2 mm 2 m/s 730 mmHg 96%
    03:00 -1°C° 0.4 mm 2 m/s 731 mmHg 97%
    04:00 -1°C° 0.4 mm 2 m/s 731 mmHg 97%
    05:00 +1°C° 0.4 mm 1 m/s 731 mmHg 97%
    06:00 -1°C° 0.6 mm 2 m/s 732 mmHg 96%
    07:00 -2°C° 0.6 mm 3 m/s 732 mmHg 94%
    08:00 -3°C° 0.6 mm 4 m/s 733 mmHg 93%
    09:00 -5°C° 0.2 mm 5 m/s 734 mmHg 90%
    10:00 -6°C° 0.2 mm 6 m/s 735 mmHg 88%
    11:00 -8°C° 0.2 mm 6 m/s 736 mmHg 86%
    12:00 -9°C° 0.1 mm 6 m/s 737 mmHg 84%
    13:00 -10°C° 0.1 mm 6 m/s 738 mmHg 82%
    14:00 -11°C° 0.1 mm 7 m/s 739 mmHg 80%
    15:00 -11°C° 0.1 mm 6 m/s 740 mmHg 79%
    16:00 -11°C° 0.1 mm 6 m/s 741 mmHg 79%
    17:00 -12°C° 0.1 mm 6 m/s 742 mmHg 79%
    18:00 -12°C° 0.1 mm 6 m/s 743 mmHg 77%
    19:00 -14°C° 0.1 mm 6 m/s 744 mmHg 76%
    20:00 -14°C° 0.1 mm 6 m/s 745 mmHg 75%
    21:00 -15°C° 0 mm 6 m/s 746 mmHg 75%
    22:00 -15°C° 0 mm 6 m/s 746 mmHg 74%
    23:00 -15°C° 0 mm 6 m/s 747 mmHg 74%

    22 Februarie, Vineri

    Timp Temperatura Precipitaţii Vânt Presiune Umiditate
    00:00 -16°C° 0 mm 6 m/s 748 mmHg 75%
    01:00 -16°C° 0 mm 6 m/s 748 mmHg 76%
    02:00 -16°C° 0 mm 6 m/s 749 mmHg 76%
    03:00 -16°C° 0 mm 6 m/s 749 mmHg 76%
    04:00 -16°C° 0 mm 6 m/s 750 mmHg 76%
    05:00 -17°C° 0 mm 6 m/s 750 mmHg 76%
    06:00 -17°C° 0 mm 6 m/s 751 mmHg 77%
    07:00 -17°C° 0 mm 6 m/s 751 mmHg 78%
    08:00 -17°C° 0 mm 5 m/s 751 mmHg 78%
    09:00 -16°C° 0 mm 6 m/s 752 mmHg 75%
    10:00 -16°C° 0 mm 6 m/s 752 mmHg 71%
    11:00 -15°C° 0 mm 6 m/s 752 mmHg 68%
    12:00 -15°C° 0 mm 7 m/s 752 mmHg 67%
    13:00 -15°C° 0 mm 7 m/s 753 mmHg 66%
    14:00 -15°C° 0 mm 7 m/s 753 mmHg 65%
    15:00 -15°C° 0 mm 7 m/s 753 mmHg 67%
    16:00 -15°C° 0 mm 7 m/s 754 mmHg 70%
    17:00 -16°C° 0 mm 6 m/s 755 mmHg 72%
    18:00 -16°C° 0 mm 6 m/s 755 mmHg 73%
    19:00 -16°C° 0 mm 6 m/s 756 mmHg 74%
    20:00 -16°C° 0 mm 6 m/s 756 mmHg 75%
    21:00 -15°C° 0 mm 5 m/s 757 mmHg 77%
    22:00 -17°C° 0 mm 5 m/s 757 mmHg 79%
    23:00 -17°C° 0 mm 5 m/s 757 mmHg 80%

    23 Februarie, Sâmbătă

    Timp Temperatura Precipitaţii Vânt Presiune Umiditate
    00:00 -17°C° 0 mm 5 m/s 758 mmHg 82%
    01:00 -17°C° 0 mm 5 m/s 758 mmHg 83%
    02:00 -16°C° 0 mm 4 m/s 758 mmHg 84%
    03:00 -17°C° 0 mm 4 m/s 758 mmHg 86%
    04:00 -17°C° 0 mm 4 m/s 758 mmHg 87%
    05:00 -16°C° 0 mm 3 m/s 758 mmHg 88%
    06:00 -16°C° 0 mm 3 m/s 759 mmHg 88%
    07:00 -16°C° 0 mm 3 m/s 759 mmHg 88%
    08:00 -17°C° 0 mm 3 m/s 759 mmHg 88%
    09:00 -15°C° 0 mm 3 m/s 760 mmHg 85%
    10:00 -14°C° 0 mm 3 m/s 760 mmHg 82%
    11:00 -13°C° 0 mm 3 m/s 760 mmHg 79%
    12:00 -10°C° 0 mm 2 m/s 760 mmHg 78%
    13:00 -10°C° 0 mm 2 m/s 760 mmHg 77%
    14:00 -9°C° 0 mm 2 m/s 760 mmHg 76%
    15:00 -9°C° 0 mm 2 m/s 760 mmHg 80%
    16:00 -10°C° 0 mm 2 m/s 760 mmHg 84%
    17:00 -9°C° 0 mm 1 m/s 759 mmHg 89%
    18:00 -10°C° 0 mm 1 m/s 760 mmHg 89%
    19:00 -12°C° 0 mm 2 m/s 760 mmHg 88%
    20:00 -12°C° 0 mm 2 m/s 760 mmHg 88%
    21:00 -10°C° 0 mm 2 m/s 760 mmHg 88%
    22:00 -10°C° 0 mm 2 m/s 760 mmHg 87%
    23:00 -12°C° 0 mm 3 m/s 760 mmHg 86%

    24 Februarie, Duminică

    Timp Temperatura Precipitaţii Vânt Presiune Umiditate
    00:00 -12°C° 0 mm 3 m/s 760 mmHg 89%
    01:00 -12°C° 0 mm 3 m/s 760 mmHg 91%
    02:00 -13°C° 0 mm 3 m/s 759 mmHg 93%
    03:00 -13°C° 0 mm 3 m/s 759 mmHg 94%
    04:00 -12°C° 0 mm 2 m/s 759 mmHg 95%
    05:00 -12°C° 0 mm 2 m/s 759 mmHg 96%
    06:00 -10°C° 0 mm 2 m/s 759 mmHg 96%
    07:00 -10°C° 0 mm 2 m/s 759 mmHg 95%
    08:00 -9°C° 0 mm 2 m/s 759 mmHg 95%
    09:00 -9°C° 0 mm 3 m/s 759 mmHg 93%
    10:00 -9°C° 0 mm 3 m/s 759 mmHg 91%
    11:00 -8°C° 0 mm 3 m/s 759 mmHg 90%
    12:00 -7°C° 0 mm 3 m/s 758 mmHg 89%
    13:00 -6°C° 0 mm 3 m/s 758 mmHg 89%
    14:00 -5°C° 0 mm 3 m/s 758 mmHg 88%
    15:00 -5°C° 0 mm 3 m/s 757 mmHg 89%
    16:00 -5°C° 0 mm 3 m/s 757 mmHg 91%
    17:00 -5°C° 0 mm 3 m/s 757 mmHg 92%
    18:00 -5°C° 0.1 mm 3 m/s 756 mmHg 92%
    19:00 -4°C° 0.1 mm 3 m/s 756 mmHg 93%
    20:00 -4°C° 0.1 mm 4 m/s 755 mmHg 93%
    21:00 -4°C° 0.2 mm 4 m/s 754 mmHg 93%
    22:00 -4°C° 0.2 mm 4 m/s 754 mmHg 93%
    23:00 -3°C° 0.2 mm 4 m/s 753 mmHg 93%
    Arată mai mult